Location: Unspecified
(49.2170°N, 0.0000°E)
Time: 06:49:52
(UTC+00:00)

Vanguard 3 - Pass Details

Date: 25 January 2021
Orbit: 508 x 3262 km, 33.4° (Epoch: 08 March)

Event Time Altitude Azimuth Distance (km) Brightness Sun altitude
Rises 05:05:07 0° 241° (WSW) 3,768 - -25.1°
Reaches altitude 10° 05:07:39 10° 230° (SW) 3,111 - -24.7°
Exits shadow 05:09:51 20° 216° (SW) 2,699 9.5 -24.3°
Maximum altitude 05:14:32 32° 171° (S) 2,590 9.7 -23.5°
Drops below altitude 10° 05:25:26 10° 117° (ESE) 5,012 12.1 -21.8°
Sets 05:30:51 0° 109° (ESE) 6,457 13.1 -20.9°
